Iridium
NORAD ID: 25173
Int'l Code: 1998-010E
Perigee: 783.2 km
Apogee: 786.4 km
Inclination: 86.4 °
Period: 100.4 minutes
Semi major axis: 7155 km
Launch date: February 18, 1998
Source: United States (US)
Two Line Element Set (TLE):
1 25173U 98010E 13140.42613630 .00000116 00000-0 34330-4 0 3090
2 25173 086.3979 252.5601 0002253 109.1853 293.5151 14.34218791798383
Source: AFSPC
NASA's NSSDC Master Catalog entry for IRIDIUM 53